www.pogodaiklimat.ru

Погода и климат >> Архив погоды >> Россия >> Ставропольский край >> Невинномысск


ПОГОДА в Невинномысске

АРХИВ ПОГОДЫ в Невинномысске

Время (UTC), дата Ветер
(напр.,м/с)
 
Видим.   Явления Облачность Т
(С)
Тd
(С)
f
(%)
Тe
(С)
Тes
(С)
Комфортность P
(гПа)
Po
(гПа)
Тmin
(С)
Tmax
(С)
R
(мм)
R24
(мм)
S
(см)
06 13.09 В 5-10
{10}
20 км ясно +19.1 +7.0 45 +19 +22 тепло 1022.6 982.8
09 13.09 В 5-12
{13}
20 км ясно +24.2 +3.4 26 +24 +30 комфорт 1020.9 981.8
12 13.09 В 5-11
{14}
20 км ясно +24.9 +1.2 21 +24 +27 комфорт 1019.5 980.5
15 13.09 В 3
{12}
20 км ясно +22.8 +1.9 25 +22 +22 комфорт 1019.5 980.3 +25.3
18 13.09 В 3 20 км ясно +18.0 +3.7 39 +18 +18 тепло 1020.9 981.0
21 13.09 В 3 20 км ясно +16.3 +6.4 52 +16 +16 тепло 1020.5 980.4
00 14.09 СВ 2 20 км ясно +12.3 +6.8 69 +11 +11 по сезону 1020.5 979.8
03 14.09 ЮВ 1 20 км ясно +10.8 +6.8 76 +11 +11 прохладно 1021.2 980.3 +10.7
06 14.09 В 5 20 км ясно +18.9 +8.2 50 +19 +22 тепло 1019.9 980.1 +10.0
09 14.09 В 3
{12}
20 км ясно +25.6 +5.5 28 +25 +35 комфорт 1017.3 978.6
12 14.09 В 3 20 км ясно +26.6 +4.1 24 +26 +31 жарко 1015.9 977.3
15 14.09 В 2 20 км ясно +24.5 +3.3 25 +24 +24 комфорт 1015.5 976.6 +27.0
18 14.09 штиль 0 20 км ясно +17.1 +4.4 43 +17 +17 тепло 1017.4 977.5
21 14.09 штиль 0 20 км ясно +11.7 +6.1 68 +11 +11 по сезону 1018.4 977.7
00 15.09 штиль 0 20 км 6/0
[Ac und]
+10.2 +6.1 76 +10 +10 по сезону 1018.9 978.0
03 15.09 З 1 20 км 3/0
[Ac trans]
+11.1 +6.1 71 +11 +11 прохладно 1019.3 978.5 +10.1
06 15.09 Ю 2 20 км 10/0
[Ci fib]
+19.7 +7.1 44 +21 +25 комфорт 1018.9 979.3
09 15.09 СЗ 5 20 км 10/0
[Ci]
+25.4 +1.7 21 +24 +29 комфорт 1017.4 978.5
12 15.09 СЗ 3 20 км 10/0
[Ci]
+25.8 +0.8 19 +24 +29 комфорт 1017.1 978.3
15 15.09 СЗ 2 20 км 10/0
[Ac trans Ci]
+24.1 +0.1 21 +23 +23 комфорт 1017.8 978.8 +26.5
18 15.09 Ю 2 20 км ясно +15.0 +2.5 43 +15 +15 по сезону 1020.4 980.1
21 15.09 штиль 0 20 км ясно +13.0 +5.0 58 +13 +13 по сезону 1020.7 980.1
00 16.09 Ю 2 20 км ясно +11.8 +5.3 64 +11 +11 по сезону 1020.7 979.9
03 16.09 штиль 0 20 км ясно +8.2 +4.4 77 +8 +8 холодно 1020.6 979.3 +8.2
06 16.09 С 1 20 км ясно +19.4 +5.9 41 +21 +27 комфорт 1017.4 977.8 +8.0
09 16.09 В 3 20 км ясно +27.3 +2.5 20 +26 +35 жарко 1013.7 975.3
12 16.09 В 3 20 км ясно +28.8 +1.4 17 +27 +32 жарко 1011.2 973.0
15 16.09 штиль 0 20 км ясно +25.5 +2.8 23 +24 +24 комфорт 1011.1 972.5 +28.9
18 16.09 ЮЗ 1 20 км ясно +17.8 +5.7 45 +19 +19 тепло 1012.9 973.3
21 16.09 Ю 2 20 км 4/0
[Ci sp]
+17.5 +5.7 46 +18 +18 тепло 1013.4 973.7
00 17.09 ЮЗ 1 20 км ясно +17.1 +6.7 50 +18 +18 тепло 1013.2 973.5
03 17.09 Ю 1 20 км 10/6 600 м
[Sc Ac As]
+15.7 +7.6 59 +16 +16 тепло 1013.7 973.8 +15.4
06 17.09 ЮЗ 2 20 км 10/8 600 м
[Sc Ac und]
+18.3 +7.1 48 +19 +19 тепло 1013.6 974.0
09 17.09 Ю 2 10 км слаб. ливневой дождь 10/10 600 м
[Cb cap]
+16.7 +13.6 82 +17 +17 по сезону 1012.9 973.3
12 17.09 ЮЗ 1 20 км {ливн. осадки} 10/10 1000 м
[Cb calv]
+18.5 +13.0 70 +20 +20 по сезону 1011.5 972.1
15 17.09 Ю 3 20 км 10/0
[Ac trans Ci]
+19.2 +13.1 68 +21 +21 комфорт 1010.6 971.4 +19.9 0.8
18 17.09 ЮЗ 2 20 км 10/0
[Ci fib]
+16.9 +10.5 66 +17 +17 тепло 1012.4 972.7
21 17.09 Ю 2 20 км 10/0
[Ci]
+14.0 +6.5 61 +14 +14 по сезону 1013.5 973.3
00 18.09 Ю 1 20 км ясно +9.5 +6.5 82 +9 +9 по сезону 1014.2 973.4
03 18.09 ЮВ 1 20 км ясно +7.8 +6.1 89 +7 +7 холодно 1014.5 973.4 +7.8
06 18.09 ЮЗ 2 20 км 4/0
[Ac cast]
+18.4 +10.4 60 +19 +23 тепло 1013.7 974.2 +7.7
09 18.09 З 3 20 км 3/0
[Ac cast]
+27.2 +3.8 22 +26 +33 жарко 1011.3 973.0
12 18.09 ЮЗ 3
{10}
20 км 3/0
[Ci sp]
+29.8 -0.1 14 +27 +32 жарко 1009.3 971.3
15 18.09 З 2 20 км 3/0
[Ac cast]
+26.8 +3.4 22 +25 +25 комфорт 1009.3 970.9 +30.1
18 18.09 Ю 2 20 км ясно +16.7 +4.7 45 +17 +17 тепло 1011.6 971.9
21 18.09 СЗ 4 20 км ясно +17.5 +9.9 61 +17 +17 тепло 1014.9 975.2
00 19.09 ЮЗ 2 20 км 10/10 1000 м
[Sc diur, vesp]
+16.2 +9.0 62 +16 +16 тепло 1017.0 977.0
03 19.09 З 3 20 км 10/10 1000 м
[Cb calv]
+15.2 +6.8 57 +15 +15 тепло 1018.2 978.1 +15.2
06 19.09 СЗ 2 20 км 10/10 1000 м
[Cb calv]
+15.1 +6.6 57 +15 +15 по сезону 1020.1 979.8 +14.4
09 19.09 СЗ 2 20 км 10/0
[Ac trans]
+17.8 +6.3 47 +18 +23 по сезону 1019.5 979.6
12 19.09 СЗ 2 20 км 10/0
[Ac trans]
+19.8 +5.2 38 +21 +23 комфорт 1018.9 979.4
15 19.09 СЗ 2 20 км 10/0
[Ac trans]
+17.6 +2.0 35 +18 +18 по сезону 1019.6 979.7 +20.6
18 19.09 штиль 0 20 км 10/0
[Ac trans Ci]
+12.9 +2.3 48 +13 +13 по сезону 1020.1 979.5
21 19.09 штиль 0 20 км 10/0
[Ac und]
+11.5 +3.9 60 +11 +11 по сезону 1019.6 978.9
00 20.09 Ю 1 20 км 10/0
[Ac und]
+12.2 +4.7 60 +12 +12 по сезону 1019.6 978.9
03 20.09 Ю 1 20 км 10/0
[Ac trans Ci]
+9.5 +4.7 72 +9 +9 прохладно 1019.0 978.0 +9.5

 

Местоположение метеостанции Невинномысск (Ставропольский край, Россия): широта 44.63 долгота 41.97 высота над уровнем моря 343 м.

В архиве по умолчанию представлена погода в Невинномысске за последнюю неделю. Архивные данные за месяц целиком и за предыдущие месяцы, начиная с января 2011 года, Вы можете получить, выбрав интересующий диапазон дат из раскрывающегося списка и нажав кнопку "Ввод!".


*Определитесь, кто Вы:
робот инопланетянин человек

Внимание! Время в таблицах - всемирное. Для получения местного времени необходимо прибавить поправку, которая равна 3 ч.

Смотрите также архив погоды в соседних городах и на ближайших метеорологических станциях:

Погода в Черкесске (Карачаево-Черкессия, Россия) (46 км)
Погода в Отрадной (Краснодарский край, Россия) (47 км)
Погода в Ставрополе (Ставропольский край, Россия) (55 км)
Погода в Армавире (Краснодарский край, Россия) (78 км)
Погода в Александровском (Ставропольский край, Россия) (82 км)
Погода в Изобильном (Ставропольский край, Россия) (85 км)
Погода в Зеленчукской (Карачаево-Черкессия, Россия) (90 км)
Погода в Лабинске (Краснодарский край, Россия) (97 км)
Погода в Даховской (Адыгея, Россия) (97 км)
Погода в Минеральных Водах (Ставропольский край, Россия) (101 км)

Пояснения к столбцам:

Ветер - указаны скорость ветра в м/с - средняя за 10 мин, порывы в срок и между сроками (в фигурных скобках) и направление, откуда дует ветер: С - северный, СВ - северо-восточный, В - восточный, ЮВ - юго-восточный, Ю - южный, ЮЗ - юго-западный, З - западный, СЗ - северо-западный.
Видимость - горизонтальная дальность видимости в метрах или километрах. При видимости от 1 до 10 км при отсутствии осадков обычно наблюдается дымка, при ухудшении видимости до 1 км и менее - туман. В сухую погоду видимость может ухудшаться дымом, пылью или мглою.
Явления - указаны атмосферные явления, наблюдавшиеся в срок или в последний час перед сроком; фигурными скобками обозначены явления, наблюдавшиеся между сроками (за 1-3 часа до срока); квадратными скобками обозначены град или гололедные отложения с указанием их диаметра в мм.
Облачность - указаны через наклонную черту общая и нижняя облачность в баллах и высота нижней границы облаков в метрах; квадратными скобками обозначены формы облаков: Ci - перистые, Cs - перисто-слоистые, Cc - перисто-кучевые, Ac - высококучевые, As - высокослоистые, Sc - слоисто-кучевые, Ns - слоисто-дождевые, Cu - кучевые, Cb - кучево-дождевые. Подробнее классификацию облаков см. в Атласе облаков (PDF).
T - Температура воздуха - температура, измеренная на высоте 2 м над землей.
Td - Температура точки росы - температура, при понижении до которой содержащийся в воздухе водяной пар достигнет насыщения.
f - Относительная влажность воздуха - влажноcть воздуха, измеренная на высоте 2 м над землей.
Te - Эффективная температура - температура, которую ощущает одетый по сезону человек в тени. Характеристика душности погоды. При расчете учитывается влияние влажности воздуха и скорости ветра на теплоощущения человека.
Tes - Эффективная температура на солнце - температура, которую ощущает человек, с поправкой на солнечный нагрев. Характеристика знойности погоды. Зависит от высоты солнца над горизонтом, облачности и скорости ветра. Ночью, в пасмурную погоду, а также при ветре 12 м/с и более поправка равна нулю.
P - Атмосферное давление - приведенное к уровню моря атмосферное давление.
Po - Атмосферное давление - измеренное на уровне метеостанции атмосферное давление.
Tmin - Минимальная температура - минимум температуры воздуха на высоте 2 м над землей.
Tmax - Максимальная температура - максимум температуры воздуха на высоте 2 м над землей.
R - Количество осадков - Количество выпавших осадков за период времени, мм. При наведении курсора мыши на число - период времени, за который выпало указанное количество осадков.
R24 - Количество осадков - Количество выпавших осадков за 24 часа, мм.
S - Снежный покров - Высота снежного покрова, см. При наведении курсора мыши на число - состояние снежного покрова и степень покрытия местности в баллах.